Los Angeles, CA

4:33 PM PDT on September 29, 2016 (GMT -0700)
Los Angeles International

Weather History for KLAX - July, 2013

Change the Weather History Date:

Saturday, July 27, 2013

  Actual Average Record
Temperature  
Mean Temperature 67 °F 69 °F  
Max Temperature 70 °F 74 °F 88 °F (1967)
Min Temperature 63 °F 64 °F 57 °F (1965)
Degree Days  
Heating Degree Days 0 0  
Month to date heating degree days 0 0  
Since 1 June heating degree days 0 25  
Since 1 July heating degree days 0 0  
Cooling Degree Days 2 4  
Month to date cooling degree days 123 100  
Year to date cooling degree days 297 182  
Since 1 June cooling degree days 216 142  
Growing Degree Days 16 (Base 50)    
Moisture  
Dew Point 60 °F    
Average Humidity 82    
Maximum Humidity 93    
Minimum Humidity 70    
Precipitation  
Precipitation 0.00 in 0.00 in 0.14 in (2014)
Month to date precipitation 0.03 0.03  
Year to date precipitation 2.64 8.84  
Since 1 July precipitation 0.03  
Sea Level Pressure  
Sea Level Pressure 29.97 in    
Wind  
Wind Speed 8 mph (WSW)    
Max Wind Speed 17 mph    
Max Gust Speed 21 mph    
Visibility 10 miles    
Events      
T = Trace of Precipitation, MM = Missing Value Source: NWS Daily Summary

Daily Weather History Graph

Daily Weather History Graph

Search for Another Location

Airport or City:

Trip Planner

Search our weather history database for the weather conditions in past years. The results will help you decide how hot, cold, wet, or windy it might be!

Date:

Astronomy

Jul. 27, 2013 Rise Set
Actual Time 6:01 AM PDT 7:57 PM PDT
Civil Twilight 5:34 AM PDT 8:25 PM PDT
Nautical Twilight 5:00 AM PDT 8:59 PM PDT
Astronomical Twilight 4:24 AM PDT 9:34 PM PDT
Moon 11:08 PM PDT (7/27) 11:28 AM PDT (7/27)
Length of Visible Light 14h 51m
Length of Day
13h 56m
Waning Gibbous, 70% of the Moon is Illuminated
Jul 27
Waning Gibbous
Jul 29
Last Quarter
Aug 6
New
Aug 14
First Quarter
Aug 20
Full

Hourly Weather History & Observations

Time (PDT) Temp. Dew Point Humidity Pressure Visibility Wind Dir Wind Speed Gust Speed Precip Events Conditions
12:18 AM 64.4 °F 60.8 °F 88% 30.02 in 10.0 mi SSW 6.9 mph - N/A   Scattered Clouds
12:53 AM 64.0 °F 60.1 °F 87% 30.01 in 10.0 mi West 6.9 mph - N/A   Mostly Cloudy
1:53 AM 64.0 °F 59.0 °F 84% 30.01 in 10.0 mi WSW 8.1 mph - N/A   Scattered Clouds
2:47 AM 64.4 °F 60.8 °F 88% 30.01 in 10.0 mi SW 4.6 mph - N/A   Mostly Cloudy
2:53 AM 64.0 °F 60.1 °F 87% 30.01 in 10.0 mi WSW 6.9 mph - N/A   Overcast
3:53 AM 64.0 °F 60.1 °F 87% 30.00 in 10.0 mi West 6.9 mph - N/A   Mostly Cloudy
4:53 AM 63.0 °F 59.0 °F 87% 30.00 in 10.0 mi WSW 6.9 mph - N/A   Overcast
5:20 AM 62.6 °F 59.0 °F 88% 30.00 in 10.0 mi West 4.6 mph - N/A   Scattered Clouds
5:53 AM 63.0 °F 60.1 °F 90% 30.00 in 10.0 mi Calm Calm - N/A   Mostly Cloudy
6:53 AM 63.0 °F 60.1 °F 90% 30.01 in 10.0 mi WSW 4.6 mph - N/A   Mostly Cloudy
7:53 AM 64.0 °F 60.1 °F 87% 30.02 in 9.0 mi Variable 3.5 mph - N/A   Mostly Cloudy
8:28 AM 66.2 °F 59.0 °F 78% 30.02 in 9.0 mi West 5.8 mph - N/A   Mostly Cloudy
8:53 AM 66.0 °F 60.1 °F 81% 30.01 in 8.0 mi West 4.6 mph - N/A   Mostly Cloudy
9:24 AM 66.2 °F 60.8 °F 83% 30.01 in 8.0 mi Variable 3.5 mph - N/A   Scattered Clouds
9:53 AM 69.1 °F 60.1 °F 73% 30.00 in 9.0 mi WSW 3.5 mph - N/A   Scattered Clouds
10:53 AM 69.1 °F 60.1 °F 73% 30.00 in 8.0 mi West 12.7 mph - N/A   Scattered Clouds
11:53 AM 70.0 °F 59.0 °F 68% 29.99 in 10.0 mi West 12.7 mph - N/A   Mostly Cloudy
12:53 PM 69.1 °F 59.0 °F 70% 29.98 in 10.0 mi West 11.5 mph - N/A   Scattered Clouds
1:53 PM 70.0 °F 59.0 °F 68% 29.96 in 10.0 mi WSW 10.4 mph - N/A   Mostly Cloudy
2:39 PM 69.8 °F 60.8 °F 73% 29.95 in 10.0 mi WSW 12.7 mph - N/A   Scattered Clouds
2:53 PM 70.0 °F 59.0 °F 68% 29.94 in 10.0 mi West 13.8 mph - N/A   Scattered Clouds
3:46 PM 68.0 °F 60.8 °F 78% 29.93 in 9.0 mi West 12.7 mph - N/A   Mostly Cloudy
3:53 PM 68.0 °F 60.1 °F 76% 29.93 in 9.0 mi West 10.4 mph - N/A   Mostly Cloudy
4:53 PM 66.9 °F 59.0 °F 76% 29.92 in 10.0 mi West 11.5 mph - N/A   Mostly Cloudy
5:53 PM 64.9 °F 59.0 °F 81% 29.91 in 10.0 mi WSW 12.7 mph - N/A   Overcast
6:53 PM 64.0 °F 60.1 °F 87% 29.90 in 10.0 mi WSW 8.1 mph - N/A   Overcast
7:53 PM 63.0 °F 57.9 °F 84% 29.91 in 10.0 mi West 11.5 mph - N/A   Mostly Cloudy
8:53 PM 64.0 °F 57.9 °F 80% 29.91 in 10.0 mi West 10.4 mph - N/A   Mostly Cloudy
9:53 PM 63.0 °F 57.9 °F 84% 29.93 in 10.0 mi West 9.2 mph - N/A   Mostly Cloudy
10:53 PM 63.0 °F 59.0 °F 87% 29.93 in 10.0 mi West 11.5 mph - N/A   Overcast
11:53 PM 63.0 °F 59.0 °F 87% 29.92 in 10.0 mi West 5.8 mph - N/A   Overcast